WX4SKY Weather Reports


Display with metric or nautical units.
time (UTC)temp
F
wind
direction
speed
MPH
gust
MPH
rain 1hr
in
rain 24hr
in
rain mn
in
humidity
%
barometer
mb
20260904124605 72 0 0.0 0.0 0.00 0.00 0.00 96 1019.1
20260904123126 71 0 0.0 0.0 0.00 0.00 0.00 96 1019.2
20260904121607 71 0 0.0 0.0 0.00 0.00 0.00 95 1019.1
20260904114605 70 0 0.0 0.0 0.00 0.00 0.00 95 1018.8
20260904113105 70 0 0.0 0.0 0.00 0.00 0.00 95 1018.7
20260904111610 70 0 0.0 0.0 0.00 0.00 0.00 95 1018.5
20260904110108 70 0 0.0 0.0 0.00 0.00 0.00 95 1018.5
20260904104601 70 0 0.0 0.0 0.00 0.00 0.00 95 1018.4
20260904103107 71 0 0.0 0.0 0.00 0.00 0.00 95 1018.3
20260904101606 71 0 0.0 0.0 0.00 0.00 0.00 95 1018.3
20260904100110 71 0 0.0 0.0 0.00 0.00 0.00 95 1018.2
20260904094600 71 0 0.0 0.0 0.00 0.00 0.00 94 1018.2
20260904093107 71 0 0.0 0.0 0.00 0.00 0.00 94 1018.1
20260904091605 71 0 0.0 0.0 0.00 0.00 0.00 94 1018.2
20260904090059 71 0 0.0 0.0 0.00 0.00 0.00 94 1018.1
20260904084606 71 0 0.0 0.0 0.00 0.00 0.00 94 1018.2
20260904083104 72 0 0.0 0.0 0.00 0.00 0.00 94 1018.4
20260904081601 72 0 0.0 0.0 0.00 0.00 0.00 94 1018.2
20260904080112 72 0 0.0 0.0 0.00 0.00 0.00 94 1018.2
20260904074604 72 0 0.0 0.0 0.00 0.00 0.00 94 1018.2
20260904073103 72 0 0.0 0.0 0.00 0.00 0.00 94 1018.1
20260904071606 73 0 0.0 0.0 0.00 0.00 0.00 94 1018.1
20260904070112 73 0 0.0 0.0 0.00 0.00 0.00 93 1018.1
20260904064621 73 0 0.0 0.0 0.00 0.00 0.00 93 1018.0
20260904063059 73 0 0.0 0.0 0.00 0.00 0.00 93 1018.1
20260904061605 73 0 0.0 0.0 0.00 0.00 0.00 93 1018.0
20260904060105 73 0 0.0 0.0 0.00 0.00 0.00 93 1018.1
20260904054607 74 0 0.0 0.0 0.00 0.00 0.00 93 1018.1
20260904053110 74 0 0.0 0.0 0.00 0.00 0.00 92 1018.1
20260904051618 74 0 0.0 0.0 0.00 0.00 0.00 92 1018.2
20260904050146 74 0 0.0 0.0 0.00 0.00 0.00 92 1018.3
20260904044601 74 0 0.0 0.0 0.00 0.00 0.00 92 1018.2
20260904043101 75 0 0.0 0.0 0.00 0.00 0.00 92 1018.2
20260904041612 75 0 0.0 0.0 0.00 0.00 0.00 91 1018.2
20260904040105 75 0 0.0 0.0 0.00 0.00 0.00 91 1018.2
20260904034606 75 0 0.0 0.0 0.00 0.00 0.00 90 1018.3
20260904033108 76 0 0.0 0.0 0.00 0.00 0.00 90 1018.4
20260904031559 76 0 0.0 0.0 0.00 0.00 0.00 90 1018.4
20260904030104 76 0 0.0 0.0 0.00 0.00 0.00 89 1018.3
20260904024608 77 0 0.0 0.0 0.00 0.00 0.00 88 1018.3
20260904023102 77 0 0.0 0.0 0.00 0.00 0.00 87 1018.3
20260904021558 77 0 0.0 0.0 0.00 0.00 0.00 86 1018.2
20260904020106 78 0 0.0 0.0 0.00 0.00 0.00 86 1018.1
20260904014631 78 0 0.0 0.0 0.00 0.00 0.00 85 1017.9
20260904013103 79 0 0.0 0.0 0.00 0.00 0.00 84 1017.6
20260904011610 79 0 0.0 0.0 0.00 0.00 0.00 83 1017.6
20260904010105 80 0 0.0 0.0 0.00 0.00 0.00 81 1017.5
20260904004601 81 0 0.0 0.0 0.00 0.00 0.00 79 1017.3
20260904003107 82 0 0.0 0.0 0.00 0.00 0.00 77 1017.3
20260904001604 83 0 0.0 0.0 0.00 0.00 0.00 76 1017.2
20260904000106 84 0 0.0 0.0 0.00 0.00 0.00 75 1017.0
20260903234600 85 0 0.0 0.0 0.00 0.00 0.00 70 1016.8
20260903233105 87 0 0.0 0.0 0.00 0.00 0.00 68 1016.7
20260903231621 89 0 0.0 0.0 0.00 0.00 0.00 63 1016.3
20260903230114 90 0 0.0 0.0 0.00 0.00 0.00 60 1016.4
20260903224603 91 0 0.0 0.0 0.00 0.00 0.00 57 1016.2
20260903223113 93 0 0.0 1.0 0.00 0.00 0.00 56 1016.2
20260903221604 95 149 0.0 3.0 0.00 0.00 0.00 54 1016.4
20260903220111 97 0 0.0 1.0 0.00 0.00 0.00 52 1016.5
20260903214606 96 0 0.0 3.0 0.00 0.00 0.00 54 1016.5
20260903213106 95 219 0.0 2.0 0.00 0.00 0.00 54 1016.5
20260903211616 95 169 0.0 3.0 0.00 0.00 0.00 56 1016.8
20260903210104 95 0 0.0 0.0 0.00 0.00 0.00 59 1016.8
20260903204605 96 0 0.0 3.0 0.00 0.00 0.00 52 1016.9
20260903203109 95 153 0.0 1.0 0.00 0.00 0.00 55 1017.1
20260903201606 95 0 0.0 1.0 0.00 0.00 0.00 54 1017.2
20260903200110 94 0 0.0 1.0 0.00 0.00 0.00 56 1017.2
20260903194602 92 105 0.0 2.0 0.00 0.00 0.00 58 1017.5
20260903193108 94 136 0.0 1.0 0.00 0.00 0.00 56 1017.6
20260903191609 94 101 1.0 3.0 0.00 0.00 0.00 51 1017.8
20260903190106 96 67 0.0 3.0 0.00 0.00 0.00 52 1018.0
20260903184606 95 130 0.0 3.0 0.00 0.00 0.00 56 1018.2
20260903183122 93 69 1.0 4.0 0.00 0.00 0.00 57 1018.4
20260903181639 93 139 0.0 2.0 0.00 0.00 0.00 57 1018.5
20260903180107 93 102 1.0 2.0 0.00 0.00 0.00 57 1018.5
20260903174604 94 119 0.0 3.0 0.00 0.00 0.00 56 1018.7
20260903173112 93 128 1.0 4.0 0.00 0.00 0.00 59 1018.9
20260903171607 93 112 0.0 3.0 0.00 0.00 0.00 58 1019.2
20260903170106 92 129 1.0 4.0 0.00 0.00 0.00 61 1019.4
20260903164610 90 169 0.0 2.0 0.00 0.00 0.00 63 1019.5
20260903163106 90 0 1.0 3.0 0.00 0.00 0.00 63 1019.7
20260903161739 90 121 0.0 3.0 0.00 0.00 0.00 67 1019.7
20260903160107 90 121 0.0 3.0 0.00 0.00 0.00 67 1020.0
20260903154559 89 0 0.0 3.0 0.00 0.00 0.00 68 1019.9
20260903153107 88 130 0.0 2.0 0.00 0.00 0.00 71 1020.0
20260903151617 87 97 0.0 3.0 0.00 0.00 0.00 71 1020.2
20260903150108 86 0 0.0 2.0 0.00 0.00 0.00 74 1020.0
20260903144600 85 0 0.0 1.0 0.00 0.00 0.00 80 1020.0
20260903143101 83 86 0.0 0.0 0.00 0.00 0.00 79 1019.9
20260903141603 82 0 0.0 0.0 0.00 0.00 0.00 84 1020.0
20260903140109 79 0 0.0 0.0 0.00 0.00 0.00 90 1020.0
20260903134609 77 0 0.0 0.0 0.00 0.00 0.00 93 1020.1
20260903133100 76 0 0.0 0.0 0.00 0.00 0.00 96 1020.2
20260903131607 75 0 0.0 0.0 0.00 0.00 0.00 96 1020.0
20260903130108 74 0 0.0 0.0 0.00 0.00 0.00 96 1020.1